Fremont, MI

9:41 PM EDT on July 25, 2017 (GMT -0400)
Fremont

Weather History for KFFX - March, 2014

Change the Weather History Date:

Tuesday, March 25, 2014

  Actual Average (KMKG) Record (KMKG)
Temperature  
Mean Temperature 19 °F -  
Max Temperature 26 °F 43 °F 76 °F (2007)
Min Temperature 11 °F 26 °F 1 °F (1971)
Degree Days  
Heating Degree Days 46    
Moisture  
Dew Point 15 °F    
Average Humidity 79    
Maximum Humidity 98    
Minimum Humidity 56    
Precipitation  
Precipitation 0.00 in - - ()
Sea Level Pressure  
Sea Level Pressure 30.00 in    
Wind  
Wind Speed 10 mph (NW)    
Max Wind Speed 22 mph    
Max Gust Speed 25 mph    
Visibility 6 miles    
Events Snow    
Averages and records for this station are not official NWS values.
T = Trace of Precipitation, MM = Missing Value Source: NWS Daily Summary

Daily Weather History Graph

Daily Weather History Graph

Search for Another Location

Airport or City:

Trip Planner

Search our weather history database for the weather conditions in past years. The results will help you decide how hot, cold, wet, or windy it might be!

Date:

Astronomy

Mar. 25, 2014 Rise Set
Actual Time 7:38 AM EDT 8:02 PM EDT
Civil Twilight 7:09 AM EDT 8:30 PM EDT
Nautical Twilight 6:35 AM EDT 9:04 PM EDT
Astronomical Twilight 6:01 AM EDT 9:39 PM EDT
Moon 4:08 AM EDT (3/25) 2:23 PM EDT (3/25)
Length of Visible Light 13h 21m
Length of Day
12h 24m
Waning Crescent, 32% of the Moon is Illuminated
Mar 25
Waning Crescent
Mar 30
New
Apr 7
First Quarter
Apr 15
Full
Apr 22
Last Quarter

Hourly Weather History & Observations

Time (EDT) Temp. Windchill Dew Point Humidity Pressure Visibility Wind Dir Wind Speed Gust Speed Precip Events Conditions
12:13 AM 23.0 °F 12.4 °F 14.9 °F 71% 29.98 in 10.0 mi SSW 10.4 mph - N/A   Overcast
12:34 AM 23.7 °F 14.0 °F 14.9 °F 69% 29.97 in 10.0 mi South 9.2 mph - N/A   Overcast
12:54 AM 24.3 °F 15.4 °F 15.4 °F 69% 29.96 in 10.0 mi South 8.1 mph - N/A   Overcast
1:14 AM 24.4 °F 15.6 °F 16.5 °F 72% 29.95 in 5.0 mi South 8.1 mph - N/A Snow Light Snow
1:34 AM 24.3 °F 15.4 °F 19.8 °F 83% 29.93 in 3.0 mi South 8.1 mph - N/A Snow Light Snow
1:54 AM 24.3 °F 15.4 °F 22.1 °F 91% 29.93 in 1.5 mi SW 8.1 mph - N/A Snow Light Snow
2:14 AM 26.4 °F 15.0 °F 25.0 °F 94% 29.92 in 1.2 mi WNW 13.8 mph - N/A Snow Light Snow
2:34 AM 26.6 °F 15.2 °F 22.8 °F 86% 29.92 in 10.0 mi WNW 13.8 mph 18.4 mph N/A   Overcast
2:54 AM 26.2 °F 15.2 °F 21.9 °F 84% 29.92 in 10.0 mi WNW 12.7 mph - N/A   Overcast
3:14 AM 26.2 °F 15.8 °F 21.9 °F 84% 29.92 in 10.0 mi WNW 11.5 mph 16.1 mph N/A   Overcast
3:35 AM 26.1 °F 15.6 °F 21.0 °F 81% 29.92 in 10.0 mi WNW 11.5 mph - N/A   Overcast
3:55 AM 25.7 °F 13.5 °F 21.2 °F 83% 29.91 in 5.0 mi WNW 15.0 mph - N/A Snow Light Snow
4:15 AM 24.8 °F 16.1 °F 21.2 °F 86% 29.90 in 10.0 mi WNW 8.1 mph - N/A   Overcast
4:35 AM 25.3 °F 13.6 °F 20.8 °F 83% 29.90 in 5.0 mi WNW 13.8 mph 17.3 mph N/A Snow Light Snow
4:55 AM 23.9 °F 15.0 °F 20.3 °F 86% 29.90 in 10.0 mi WNW 8.1 mph - N/A   Overcast
5:15 AM 23.4 °F 14.3 °F 17.4 °F 78% 29.90 in 10.0 mi WNW 8.1 mph - N/A   Scattered Clouds
5:35 AM 21.9 °F 12.5 °F 15.8 °F 77% 29.90 in 10.0 mi WNW 8.1 mph - N/A   Clear
5:50 AM 20.3 °F 11.5 °F 14.5 °F 78% 29.90 in 10.0 mi WNW 6.9 mph - N/A   Clear
6:10 AM 20.3 °F 12.5 °F 14.7 °F 79% 29.90 in 10.0 mi West 5.8 mph - N/A   Scattered Clouds
6:30 AM 21.4 °F 12.8 °F 15.4 °F 78% 29.91 in 10.0 mi West 6.9 mph - N/A   Mostly Cloudy
6:51 AM 21.9 °F 13.4 °F 15.6 °F 77% 29.91 in 10.0 mi West 6.9 mph - N/A Snow Light Snow
7:11 AM 22.5 °F 11.1 °F 18.9 °F 86% 29.92 in 1.5 mi NW 11.5 mph - N/A Snow Light Snow
7:31 AM 19.4 °F 12.8 °F 16.7 °F 89% 29.92 in 10.0 mi NNW 4.6 mph - N/A   Scattered Clouds
7:51 AM 19.0 °F - 18.0 °F 96% 29.92 in 10.0 mi Calm Calm - N/A   Clear
8:11 AM 17.6 °F - 17.2 °F 98% 29.93 in 2.0 mi Calm Calm - N/A Snow Light Snow
8:31 AM 18.0 °F - 16.5 °F 94% 29.93 in 10.0 mi Calm Calm - N/A   Scattered Clouds
8:51 AM 17.6 °F - 15.8 °F 93% 29.93 in 10.0 mi Calm Calm - N/A   Scattered Clouds
9:11 AM 19.9 °F 12.1 °F 15.4 °F 83% 29.93 in 10.0 mi West 5.8 mph - N/A   Scattered Clouds
9:31 AM 23.2 °F 12.6 °F 14.4 °F 69% 29.93 in 10.0 mi WNW 10.4 mph 16.1 mph N/A   Scattered Clouds
9:52 AM 23.7 °F 11.5 °F 13.6 °F 65% 29.94 in 10.0 mi WNW 13.8 mph 19.6 mph N/A   Scattered Clouds
10:12 AM 23.7 °F 10.5 °F 11.3 °F 59% 29.94 in 10.0 mi WNW 16.1 mph - N/A   Mostly Cloudy
10:32 AM 24.3 °F 13.3 °F 11.5 °F 58% 29.95 in 10.0 mi NW 11.5 mph 18.4 mph N/A   Mostly Cloudy
10:52 AM 22.1 °F - 16.0 °F 77% 29.96 in 0.5 mi North - - N/A Snow Light Snow
11:12 AM 22.5 °F 11.1 °F 17.6 °F 82% 29.97 in 10.0 mi NW 11.5 mph - N/A   Mostly Cloudy
11:32 AM 21.0 °F 8.6 °F 17.4 °F 86% 29.98 in 2.5 mi NNW 12.7 mph 17.3 mph N/A Snow Light Snow
11:52 AM 21.9 °F 7.8 °F 15.4 °F 76% 29.98 in 2.5 mi NNW 17.3 mph 25.3 mph N/A Snow Light Snow
12:12 PM 21.9 °F 8.7 °F 12.7 °F 68% 29.99 in 7.0 mi NNW 15.0 mph - N/A   Mostly Cloudy
12:32 PM 21.0 °F 8.6 °F 14.0 °F 74% 30.00 in 2.5 mi NNW 12.7 mph - N/A Snow Light Snow
12:53 PM 21.2 °F 6.8 °F 15.3 °F 78% 30.00 in 1.8 mi NNW 17.3 mph 23.0 mph N/A Snow Light Snow
1:13 PM 21.7 °F 7.1 °F 12.6 °F 68% 30.01 in 7.0 mi WNW 18.4 mph 23.0 mph N/A Snow Light Snow
1:33 PM 21.2 °F 6.0 °F 13.3 °F 72% 30.01 in 4.0 mi NW 19.6 mph - N/A   Haze
1:53 PM 21.7 °F 8.0 °F 14.7 °F 74% 30.01 in 1.2 mi NW 16.1 mph 25.3 mph N/A Snow Light Snow
2:13 PM 20.7 °F 7.6 °F 13.1 °F 73% 30.01 in 1.5 mi NW 13.8 mph - N/A Snow Light Snow
2:33 PM 19.9 °F 4.3 °F 13.6 °F 77% 30.02 in 1.5 mi NNW 19.6 mph 24.2 mph N/A Snow Light Snow
2:53 PM 20.8 °F 7.3 °F 11.8 °F 68% 30.02 in 7.0 mi NW 15.0 mph - N/A   Overcast
3:13 PM 20.3 °F 4.0 °F 12.0 °F 70% 30.02 in 2.5 mi NNW 21.9 mph - N/A Snow Light Snow
3:33 PM 19.6 °F 7.4 °F 11.1 °F 70% 30.03 in 5.0 mi WNW 11.5 mph - N/A Snow Light Snow
3:54 PM 19.9 °F 5.2 °F 11.3 °F 69% 30.03 in 2.5 mi NNW 17.3 mph 24.2 mph N/A Snow Light Snow
4:14 PM 20.5 °F 7.4 °F 8.4 °F 60% 30.04 in 7.0 mi NW 13.8 mph 20.7 mph N/A   Overcast
4:34 PM 21.7 °F 8.5 °F 8.2 °F 56% 30.04 in 10.0 mi NW 15.0 mph - N/A   Mostly Cloudy
4:54 PM 19.0 °F 5.6 °F 11.1 °F 71% 30.05 in 1.5 mi NW 13.8 mph 23.0 mph N/A Snow Light Snow
5:14 PM 19.4 °F 5.5 °F 12.0 °F 73% 30.05 in 1.5 mi NNW 15.0 mph 24.2 mph N/A Snow Light Snow
5:34 PM 19.2 °F 4.7 °F 10.0 °F 67% 30.06 in 10.0 mi NNW 16.1 mph - N/A   Mostly Cloudy
5:54 PM 18.3 °F 5.9 °F 9.3 °F 68% 30.07 in 7.0 mi NW 11.5 mph - N/A   Mostly Cloudy
6:14 PM 18.5 °F 7.5 °F 10.9 °F 72% 30.07 in 7.0 mi NW 9.2 mph - N/A Snow Light Snow
6:34 PM 18.9 °F 4.3 °F 12.0 °F 75% 30.08 in 5.0 mi NNW 16.1 mph 19.6 mph N/A Snow Light Snow
6:55 PM 17.2 °F 7.8 °F 10.2 °F 74% 30.09 in 10.0 mi NNW 6.9 mph - N/A   Scattered Clouds
7:15 PM 17.4 °F 4.7 °F 11.5 °F 78% 30.10 in 4.0 mi NNW 11.5 mph - N/A Snow Light Snow
7:35 PM 17.2 °F 6.0 °F 13.1 °F 84% 30.10 in 1.2 mi WNW 9.2 mph - N/A Snow Light Snow
7:55 PM 16.5 °F 5.1 °F 12.2 °F 83% 30.11 in 2.0 mi NNW 9.2 mph - N/A Snow Light Snow
8:15 PM 15.6 °F 7.0 °F 11.5 °F 84% 30.12 in 3.0 mi NW 5.8 mph - N/A Snow Light Snow
8:35 PM 16.2 °F 7.6 °F 12.6 °F 86% 30.13 in 2.5 mi WNW 5.8 mph - N/A Snow Light Snow
8:55 PM 13.8 °F 8.0 °F 10.2 °F 86% 30.13 in 7.0 mi WNW 3.5 mph - N/A Snow Light Snow
9:10 PM 14.5 °F 8.8 °F 11.5 °F 88% 30.14 in 5.0 mi WNW 3.5 mph - N/A Snow Light Snow
9:30 PM 13.1 °F - 10.6 °F 90% 30.14 in 10.0 mi Calm Calm - N/A   Scattered Clouds
9:51 PM 13.1 °F - 11.8 °F 95% 30.14 in 7.0 mi Calm Calm - N/A Snow Light Snow
10:11 PM 12.2 °F - 10.8 °F 94% 30.15 in 5.0 mi Calm Calm - N/A Snow Light Snow
10:31 PM 13.1 °F - 11.8 °F 95% 30.15 in 4.0 mi Calm Calm - N/A Snow Light Snow
10:51 PM 12.4 °F - 10.9 °F 94% 30.16 in 4.0 mi Calm Calm - N/A Snow Light Snow
11:11 PM 13.6 °F - 12.2 °F 94% 30.16 in 1.5 mi Calm Calm - N/A Snow Light Snow
11:31 PM 13.8 °F - 12.2 °F 93% 30.16 in 3.0 mi Calm Calm - N/A Snow Light Snow
11:51 PM 11.8 °F - 10.2 °F 93% 30.17 in 7.0 mi Calm Calm - N/A Snow Light Snow